Stefan Pohl

Chefscout - Werder Bremen
3 Apr 2027
Samstag
Verarbeitung

Persönlichkeit

Anpassungsfähigkeit (18) Ehrgeiz (5) Kontroverse (19) Loyalität (10) Druck (11) Professionalität (8) Fairness (19) Temperament (5)

Profil

Trainerstil Demokratisch
Lizenz Kontinentale C
Entschlossenheit 6
Menschenführung 12
Motivation 14
Disziplin 7
Arbeitszufriedenheit
50%
Ermüdung
0%
Rolle Chefscout
Gehalt 107.1K p/W
Vertrag 14.03.2029

Leistung

Verhalten Normal
Trainingseffektivität
25%
Spielerentwicklung
60%
Verletzungsprävention
25%
Taktische Umsetzung
40%

Letzte Ereignisse

Nahm an einer Scouting-Besprechung teil jetzt
Empfahl ein Transferziel jetzt
Empfahl ein Transferziel jetzt
Empfahl ein Transferziel jetzt
Empfahl ein Transferziel jetzt
Empfahl ein Transferziel jetzt
Nahm an einer Scouting-Besprechung teil jetzt
Spieler begutachtet jetzt

Aktuell beobachtet

249
Spieler Verein Status Fähigkeit Vertrauen Beobachtet Zuletzt beobachtet Letzte Stimme
Carlos Fernández Oviedo Aktiv 128 / 134 40% 11 01.04.2027 -
Diego Costa Krasnodar Aktiv 141 / 151 40% 4 01.04.2027 -
Peer Koopmeiners AZ Aktiv 135 / 129 40% 3 01.04.2027 -
Yanis Begraoui Estoril Praia Aktiv 131 / 128 40% 2 01.04.2027 -
Sergi Altimira Sporting CP Aktiv 139 / 133 40% 1 01.04.2027 -
Elijah Dijkstra Feyenoord Aktiv 122 / 126 40% 2 31.03.2027 -
Axel Tape Bayer Leverkusen Aktiv 128 / 135 40% 1 31.03.2027 Befürworten
Lior Kasa Maccabi Haifa Aktiv 114 / 111 40% 1 31.03.2027 -
Danylo Sikan Anderlecht Aktiv 128 / 120 40% 3 29.03.2027 -
Samuel Essende Young Boys Aktiv 125 / 120 40% 3 29.03.2027 -
Rumarn Burrell Queens Park Rangers Aktiv 125 / 122 40% 2 29.03.2027 -
Rafiu Durosinmi Racing Genk Aktiv 130 / 121 40% 3 28.03.2027 -
Bart van Rooij Twente Aktiv 135 / 128 40% 4 28.03.2027 -
Junnosuke Suzuki FC Copenhagen Aktiv 135 / 124 40% 3 28.03.2027 -
Ferreirinha Sport Recife Aktiv 127 / 126 40% 4 28.03.2027 -
Sambou Soumano FC Lorient Aktiv 125 / 127 40% 2 28.03.2027 -
Tanner Tessmann Olympique Lyonnais Aktiv 144 / 149 40% 1 28.03.2027 -
Matthew Litherland Blackburn Rovers Aktiv 107 / 106 40% 1 28.03.2027 -
Sabil Hansen Randers Aktiv 109 / 98 40% 1 28.03.2027 -
Francisco Chissumba Braga Aktiv 123 / 119 40% 1 28.03.2027 -
Juninho Utrecht Aktiv 127 / 124 40% 4 25.03.2027 -
Everton Bala Levski Aktiv 135 / 110 40% 2 25.03.2027 -
Chupete Málaga Aktiv 131 / 132 40% 3 23.03.2027 -
Cristian Shpendi Cesena Aktiv 130 / 140 40% 2 22.03.2027 -
Derry Scherhant SC Freiburg Aktiv 134 / 134 40% 1 22.03.2027 -
Claudio Spinelli Vasco da Gama Aktiv 135 / 127 40% 6 21.03.2027 -
Kaio Jorge Cruzeiro Aktiv 143 / 141 40% 3 21.03.2027 -
Jackson Muleka Konyaspor Aktiv 123 / 110 40% 1 21.03.2027 -
Moussa Dembélé Al-Ettifaq Aktiv 138 / 121 40% 4 20.03.2027 -
Alexandr Sobolev Zenit Aktiv 135 / 120 40% 3 19.03.2027 -
Arthur Cabral Botafogo Aktiv 124 / 117 40% 4 19.03.2027 -
Rey Manaj Sivasspor Aktiv 132 / 113 40% 3 19.03.2027 -
Lucas Agazzi Defensor Sporting Aktiv 128 / 131 40% 1 19.03.2027 -
Facundo González River Plate Aktiv 103 / 110 40% 1 19.03.2027 -
Diego Rossi Monterrey Aktiv 130 / 138 40% 4 17.03.2027 -
Allahyar Sayyadmanesh Lech Aktiv 134 / 141 40% 2 17.03.2027 -
Orri Óskarsson Real Sociedad Aktiv 129 / 141 40% 1 17.03.2027 -
Michel Ndary Adopo Cagliari Aktiv 134 / 144 40% 4 16.03.2027 -
Danilo Botafogo Aktiv 146 / 129 40% 3 16.03.2027 -
Figueiredo Alverca Aktiv 128 / 129 40% 1 16.03.2027 -
Hugo Rincón Athletic Bilbao Aktiv 140 / 143 40% 1 16.03.2027 -
Ondřej Lingr Korona Aktiv 122 / 136 40% 1 14.03.2027 -
Álex Forés Burgos Aktiv 133 / 133 40% 2 13.03.2027 -
Enes Ünal Getafe Aktiv 140 / 133 40% 3 12.03.2027 -
José Manuel López Palmeiras Aktiv 136 / 131 40% 9 12.03.2027 -
Ragnar Ache Köln Aktiv 130 / 140 40% 5 11.03.2027 -
Oli McBurnie Hull City Aktiv 134 / 143 40% 5 11.03.2027 -
Adrian Benedyczak Kasimpasa Aktiv 127 / 130 40% 2 11.03.2027 -
Tiago Freitas Benfica Aktiv 111 / 109 40% 1 11.03.2027 -
Enoch Mastoras Ajax Aktiv 125 / 121 40% 1 11.03.2027 -
Khalfan Nader Al Shaab Aktiv 101 / 107 40% 1 11.03.2027 -
Morgan Whittaker Middlesbrough Aktiv 132 / 122 40% 2 10.03.2027 -
Ozziel Herrera Tigres Aktiv 134 / 137 40% 2 10.03.2027 -
Marco Brescianini Fiorentina Aktiv 145 / 134 40% 1 08.03.2027 -
Johannes Eggestein Austria Wien Aktiv 130 / 116 40% 4 07.03.2027 -
Juan Carlos Arana Racing Santander Aktiv 134 / 120 40% 4 07.03.2027 -
Roger Brugué Levante Aktiv 134 / 137 40% 6 05.03.2027 -
Luciano Gondou CSKA Moscow Aktiv 125 / 132 40% 7 05.03.2027 -
Efraín Álvarez Guadalajara Aktiv 126 / 144 40% 10 04.03.2027 -
Martinelli Fluminense Aktiv 147 / 142 40% 6 04.03.2027 -
Marcos Antonio Sport Recife Aktiv 138 / 124 40% 5 04.03.2027 -
Mohamed Simakan Al-Nassr Aktiv 147 / 130 40% 5 04.03.2027 -
Soufiane Rahimi Al Ain Aktiv 141 / 153 40% 5 02.03.2027 -
Sergio Quintero La Equidad Aktiv 145 / 126 40% 1 02.03.2027 -
Eduardo Quaresma Sporting CP Aktiv 143 / 141 40% 3 01.03.2027 -
Christos Zafeiris Galatasaray Aktiv 132 / 124 40% 3 01.03.2027 -
Ardon Jashari AC Milan Aktiv 135 / 146 40% 6 27.02.2027 -
Marcus Holmgren Pedersen Olympiacos Aktiv 141 / 144 40% 4 27.02.2027 -
Marlon Gomes Shakhtar Aktiv 130 / 142 40% 4 25.02.2027 -
Sergio Carreira Celta Aktiv 136 / 136 40% 2 25.02.2027 -
Thierry Rendall Correia Venezia Aktiv 146 / 129 40% 4 23.02.2027 Beobachten
Enrico Delprato Parma Aktiv 137 / 140 40% 1 23.02.2027 -
Vitão Flamengo Aktiv 136 / 141 40% 4 22.02.2027 -
Lorenzo Pirola Olympiacos Aktiv 127 / 128 40% 2 22.02.2027 -
Alexandre Penetra AZ Aktiv 138 / 144 40% 1 19.02.2027 -
Felipe Loyola Pisa Aktiv 135 / 129 40% 5 18.02.2027 -
Maxence Caqueret Como Aktiv 131 / 135 40% 1 13.02.2027 -
Pedro Henrique Shakhtar Aktiv 138 / 117 40% 1 10.02.2027 -
Sergiño Dest PSV Aktiv 137 / 140 40% 1 08.02.2027 -
Odilon Kossounou Atalanta Aktiv 144 / 147 40% 1 07.02.2027 -
Nicolò Bertola Udinese Aktiv 135 / 133 40% 1 02.02.2027 -
Takashi Usami FC Augsburg Verloren 123 / 136 79% 1 25.01.2027 Befürworten
Lorenzo Pirola Olympiacos Verloren 130 / 146 40% 1 25.01.2027 -
Tanguy Nianzou LOSC Lille Aktiv 130 / 124 40% 1 24.01.2027 -
Kiliann Sildillia PSV Aktiv 137 / 125 40% 1 24.01.2027 -
Jakub Moder Feyenoord Aktiv 138 / 145 40% 1 24.01.2027 -
Rodrigo Huescas FC Copenhagen Aktiv 142 / 132 40% 2 23.01.2027 -
Sikou Niakaté Braga Aktiv 137 / 135 40% 2 23.01.2027 -
Nacer Tielemans Mouscron Aktiv 130 / 142 40% 1 19.01.2027 -
Axel Tape Bayer Leverkusen Verloren 125 / 123 79% 1 11.01.2027 Befürworten
Yorbe Vertessen Red Bull Salzburg Aktiv 131 / 120 40% 1 03.01.2027 -
Brian Gutiérrez Guadalajara Aktiv 134 / 144 40% 1 03.01.2027 -
Bruno Gomes Internacional Verloren 126 / 146 40% 1 03.01.2027 -
Oleh Ocheretko Shakhtar Aktiv 132 / 133 40% 1 03.01.2027 -
Israel Reyes Club America Aktiv 137 / 137 68% 1 01.01.2027 Befürworten
Luiz Henrique Zenit Bericht bereit 142 / 143 68% 1 01.01.2027 Befürworten
Igoh Ogbu Racing Genk Aktiv 146 / 146 66% 1 01.01.2027 Befürworten
Roberto Alvarado Guadalajara Aktiv 139 / 139 66% 1 01.01.2027 Befürworten
Bitello Dinamo Moscow Aktiv 135 / 135 68% 1 01.01.2027 Befürworten
Felipe Augusto Zenit Aktiv 137 / 120 40% 3 31.12.2026 -
Rafik Guitane Estoril Praia Aktiv 131 / 127 40% 1 31.12.2026 -
Facundo Pellistri Panathinaikos Aktiv 124 / 127 40% 1 31.12.2026 -
Bernardo TSG Hoffenheim Aktiv 139 / 133 40% 4 29.12.2026 -
Grischa Prömel Heidenheim Aktiv 140 / 150 40% 2 29.12.2026 -
Andreas Pereira Palmeiras Aktiv 141 / 134 40% 1 29.12.2026 -
Mahamadou Doumbia Al-Ittihad Aktiv 123 / 131 40% 1 29.12.2026 -
Jhon Jhon Zenit Aktiv 130 / 116 40% 1 29.12.2026 -
Michael Cooper Sheffield United Aktiv 133 / 137 40% 2 27.12.2026 -
Esequiel Barco Spartak Moscow Aktiv 138 / 130 40% 1 27.12.2026 -
Pascal Loretz Luzern Aktiv 126 / 126 40% 1 27.12.2026 -
George Wickens Lincoln City Aktiv 113 / 118 40% 1 27.12.2026 -
Michy Fellaini KV Oostende Aktiv 134 / 134 40% 8 24.12.2026 -
Erik Prekop Gornik Zabrze Aktiv 132 / 109 40% 2 23.12.2026 -
Jason Januzaj Mouscron Aktiv 151 / 137 40% 4 22.12.2026 -
Alexis Vega Toluca Aktiv 140 / 149 40% 8 20.12.2026 -
Malcom Al Jazira Aktiv 147 / 161 40% 3 19.12.2026 -
Nicolás Fernández Belgrano Aktiv 124 / 125 40% 2 19.12.2026 -
Lukas Klostermann RB Leipzig Aktiv 138 / 141 40% 1 19.12.2026 -
Ezequiel Ponce Elche Aktiv 132 / 136 40% 2 17.12.2026 -
Nemanja Radonjić Crvena Zvezda Aktiv 137 / 114 40% 4 17.12.2026 -
Adriano Bertaccini Anderlecht Aktiv 130 / 115 40% 2 17.12.2026 -
Zizo Al Ahly Aktiv 135 / 144 40% 1 17.12.2026 -
Cesar Corona Veracruz Aktiv 144 / 128 40% 9 14.12.2026 -
Sergej Milinković-Savić Al-Hilal Aktiv 153 / 141 40% 1 14.12.2026 -
Matheus Pereira Cruzeiro Aktiv 145 / 133 40% 1 14.12.2026 -
Ola Solbakken FC Nordsjaelland Aktiv 126 / 117 40% 2 12.12.2026 -
Jakub Surovčík Sparta Prague Aktiv 114 / 119 40% 1 12.12.2026 -
Antonio Gomis Vizela Aktiv 121 / 118 40% 1 12.12.2026 -
Matthieu Epolo Standard Liege Aktiv 116 / 123 40% 1 12.12.2026 -
Exequiel Zeballos Boca Juniors Aktiv 126 / 130 40% 3 08.12.2026 -
Fashion Sakala Al-Fayha Aktiv 127 / 114 40% 3 08.12.2026 -
Guilherme Fernandes Córdoba Aktiv 127 / 133 40% 3 07.12.2026 -
Hugo Souza Corinthians Aktiv 133 / 130 40% 1 07.12.2026 -
Jens Petter Hauge Bodo/Glimt Aktiv 133 / 148 40% 4 05.12.2026 -
Kenny Tete Fulham Aktiv 148 / 145 40% 1 05.12.2026 -
Youssef En-Nesyri Al-Ittihad Aktiv 146 / 129 40% 5 03.12.2026 -
Nicolò Tresoldi Club Brugge Aktiv 137 / 128 40% 4 03.12.2026 -
Benjamin Henrichs RB Leipzig Aktiv 150 / 146 40% 1 02.12.2026 -
Mehdi Ghayedi Al Nasr Aktiv 127 / 129 40% 2 30.11.2026 -
Diber Cambindo Leon Aktiv 122 / 143 40% 5 29.11.2026 -
Isi Palazón Rayo Vallecano Aktiv 142 / 149 40% 2 28.11.2026 -
Amine El Ouazzani Braga Aktiv 130 / 126 40% 3 28.11.2026 -
Mexx Meerdink AZ Aktiv 134 / 124 40% 1 27.11.2026 -
José Gayà Valencia Aktiv 138 / 141 40% 3 26.11.2026 -
Alejandro Zendejas Club America Aktiv 141 / 149 40% 4 26.11.2026 -
Seiya Maikuma AZ Aktiv 141 / 127 40% 1 26.11.2026 -
Che Adams Torino Aktiv 134 / 139 40% 3 23.11.2026 -
Ismael Díaz Leon Aktiv 123 / 122 40% 1 23.11.2026 -
Heorhii Yermakov Metalist Aktiv 122 / 106 40% 1 23.11.2026 -
Oleksandr Saputin Zorya Aktiv 112 / 106 40% 1 23.11.2026 -
Mio Backhaus SC Freiburg Aktiv 133 / 138 40% 1 23.11.2026 -
Brenner Vasco da Gama Aktiv 134 / 117 40% 1 19.11.2026 -
Gorka Guruzeta Athletic Bilbao Aktiv 142 / 148 40% 5 18.11.2026 -
Ellyes Skhiri Köln Aktiv 143 / 127 40% 2 18.11.2026 -
Chris Ramos Botafogo Aktiv 121 / 135 40% 1 18.11.2026 -
Luis Romo Guadalajara Aktiv 140 / 122 40% 2 16.11.2026 -
Héctor Bellerín Betis Aktiv 145 / 134 40% 1 16.11.2026 -
José Paradela Cruz Azul Aktiv 137 / 152 40% 2 14.11.2026 -
Emanuele Valeri Parma Aktiv 134 / 137 40% 1 13.11.2026 -
Marcel Ruiz Toluca Aktiv 138 / 146 40% 4 12.11.2026 -
Axel Openda KV Oostende Aktiv 132 / 130 40% 3 09.11.2026 -
Theo Bongonda Al-Faisaly Aktiv 142 / 139 40% 1 09.11.2026 -
Wessam Abou Ali Columbus Crew Aktiv 131 / 116 40% 3 07.11.2026 -
Mateo Cassierra Atlético Mineiro Aktiv 132 / 131 40% 3 07.11.2026 -
Kévin Denkey FC Cincinnati Aktiv 123 / 122 40% 2 06.11.2026 -
Dejan Joveljić Seattle Sounders Aktiv 120 / 140 40% 1 06.11.2026 -
Chris Brady Chicago Fire Aktiv 124 / 133 40% 1 06.11.2026 -
Jakub Stolarczyk Leicester City Aktiv 136 / 139 40% 1 06.11.2026 -
Gonzalo Plata Dinamo Moscow Aktiv 127 / 122 40% 5 04.11.2026 -
Lukáš Provod Slavia Prague Aktiv 149 / 154 40% 3 03.11.2026 -
Jon Guridi Sevilla Aktiv 139 / 130 40% 1 03.11.2026 -
Sandro Las Palmas Aktiv 136 / 137 40% 1 03.11.2026 -
Fiete Arp OB Aktiv 125 / 130 40% 1 01.11.2026 -
Conrad Harder RB Leipzig Aktiv 133 / 149 40% 2 31.10.2026 -
Hugo Cuypers Monterrey Aktiv 120 / 141 40% 1 30.10.2026 -
Manfred Ugalde Spartak Moscow Aktiv 132 / 116 40% 1 29.10.2026 -
Phillip Tietz Mainz 05 Aktiv 131 / 125 40% 1 24.10.2026 -
Aitor Ruibal Betis Aktiv 138 / 133 40% 1 24.10.2026 -
Hidemasa Morita Hull City Aktiv 138 / 144 40% 1 23.10.2026 -
Sebastián Villa Boca Juniors Aktiv 127 / 121 40% 3 22.10.2026 -
Sorriso Famalicao Aktiv 126 / 136 40% 2 22.10.2026 -
Jesús Vázquez Valencia Aktiv 137 / 137 40% 1 22.10.2026 -
Joaquín Pereyra Minnesota United FC Aktiv 129 / 132 40% 2 19.10.2026 -
Juan Bisanz Huracán Aktiv 124 / 117 40% 1 19.10.2026 -
Anthony Racioppi Sion Aktiv 125 / 126 40% 2 18.10.2026 -
Sergio Reguilón Inter Miami CF Aktiv 136 / 133 40% 2 18.10.2026 -
Javi Galán Celta Aktiv 145 / 150 40% 1 18.10.2026 -
Isidro Pitta Bragantino Aktiv 126 / 123 40% 1 14.10.2026 -
Sam Surridge Nashville SC Aktiv 136 / 139 40% 4 13.10.2026 -
Marvin Keller Young Boys Aktiv 143 / 144 40% 2 13.10.2026 -
Niklas Steffen Thun Aktiv 115 / 115 40% 1 13.10.2026 -
Kostantis Tzolakis Hull City Aktiv 134 / 150 40% 1 13.10.2026 -
Luca Orellano Monterrey Aktiv 140 / 142 40% 4 11.10.2026 -
Iván Martín Racing Club Aktiv 146 / 127 40% 2 11.10.2026 -
Mojmír Chytil Besiktas Aktiv 132 / 150 40% 1 11.10.2026 -
Urko Izeta Cádiz Aktiv 131 / 120 40% 4 09.10.2026 -
Tobias Bech AGF Aktiv 135 / 144 40% 4 08.10.2026 -
Luis Vázquez Birmingham Aktiv 126 / 137 40% 2 08.10.2026 -
Ilias Akhomach Villarreal Aktiv 136 / 152 40% 1 08.10.2026 -
Miguel Merentiel Boca Juniors Aktiv 136 / 135 40% 1 07.10.2026 -
Maurits Kjærgaard Red Bull Salzburg Aktiv 131 / 137 40% 2 05.10.2026 -
Hwang Hee-Chan Wolverhampton Aktiv 131 / 136 40% 2 02.10.2026 -
Patrick Schulte Columbus Crew Aktiv 121 / 133 40% 1 01.10.2026 -
Fernando Gorriarán Tigres Aktiv 133 / 153 40% 2 29.09.2026 -
Yuma Suzuki Kashima Antlers Aktiv 133 / 147 40% 1 29.09.2026 -
Yasuto Wakizaka Kawasaki Frontale Aktiv 142 / 151 40% 1 29.09.2026 -
Oscar Gloukh Ajax Aktiv 128 / 135 40% 1 27.09.2026 -
Diego Conde Villarreal Aktiv 135 / 127 40% 2 25.09.2026 -
Ryan Gauld Vancouver Whitecaps Aktiv 129 / 124 40% 1 25.09.2026 -
Ramy Bensebaini Borussia Dortmund Aktiv 141 / 154 40% 1 25.09.2026 -
Jonathan Bamba Chicago Fire Aktiv 132 / 148 40% 1 25.09.2026 -
Anthony Patterson Wrexham Aktiv 132 / 121 40% 1 25.09.2026 -
Gustavo Puerta Racing Santander Aktiv 139 / 148 40% 1 25.09.2026 -
Aune Heggebø West Bromwich Albion Aktiv 124 / 138 40% 1 23.09.2026 -
Lucien Agoumé Sevilla Aktiv 137 / 130 40% 1 21.09.2026 -
Ritsu Doan Gamba Osaka Aktiv 151 / 135 40% 2 16.09.2026 -
Alan Velasco Boca Juniors Aktiv 136 / 133 40% 1 15.09.2026 -
Timo Werner San Jose Earthquakes Aktiv 121 / 122 40% 1 12.09.2026 -
Óliver Monterrey Aktiv 130 / 130 40% 1 12.09.2026 -
Paul Nebel Mainz 05 Aktiv 134 / 153 40% 1 12.09.2026 -
Ferland Mendy Real Madrid Aktiv 139 / 139 40% 1 12.09.2026 -
Mauro Arambarri River Plate Aktiv 154 / 170 40% 2 10.09.2026 -
Jon Karrikaburu Burgos Aktiv 129 / 131 40% 4 08.09.2026 -
Robert Andrich Bayer Leverkusen Aktiv 152 / 139 40% 1 05.09.2026 -
Alejandro Balde Barcelona Aktiv 153 / 160 40% 1 05.09.2026 -
Dani Raba Valencia Aktiv 130 / 142 40% 1 04.09.2026 -
Igor Matanović SC Freiburg Aktiv 133 / 130 40% 1 04.09.2026 -
Jon Morcillo Almería Aktiv 128 / 120 40% 2 01.09.2026 -
Pedro Flamengo Aktiv 139 / 156 40% 2 31.08.2026 -
Allan Saint-Maximin Charlotte Football Club Aktiv 140 / 127 40% 1 31.08.2026 -
Mutsuki Kato Sanfrecce Hiroshima Aktiv 123 / 125 40% 1 29.08.2026 -
Talles Magno New York City Aktiv 127 / 146 40% 1 29.08.2026 -
Vitor Roque Palmeiras Aktiv 135 / 137 40% 1 28.08.2026 -
Rafael Santos Borré River Plate Aktiv 123 / 141 40% 2 27.08.2026 -
Lucas Boyé Alavés Aktiv 138 / 146 40% 2 25.08.2026 -
Yuri Alberto Corinthians Aktiv 141 / 150 40% 1 23.08.2026 -
Barış Alper Yılmaz Galatasaray Aktiv 149 / 145 40% 1 22.08.2026 -
Jean-Luc Morin Tours Aktiv 141 / 146 40% 1 22.08.2026 -
Petar Musa FC Dallas Aktiv 137 / 150 40% 1 19.08.2026 -
Kerem Aktürkoğlu Fenerbahce Aktiv 132 / 128 40% 1 18.08.2026 -
James McConnell Liverpool Aktiv 117 / 121 40% 1 16.08.2026 -
Corsin Konietzke St. Gallen Aktiv 105 / 113 40% 1 15.08.2026 -
Ignacio Perruzzi San Lorenzo Aktiv 126 / 118 40% 1 14.08.2026 -
Arjan Malić Sturm Graz Aktiv 118 / 126 40% 1 14.08.2026 -
Soumaïla Diabaté Red Bull Salzburg Aktiv 109 / 108 40% 2 12.08.2026 -
John Mellberg Red Bull Salzburg Aktiv 112 / 116 40% 1 12.08.2026 -
Umar Sadiq Valencia Aktiv 137 / 136 40% 1 02.08.2026 -
Elías Báez Atlanta United FC Aktiv 125 / 135 40% 1 02.08.2026 -
Dayann Methalie Sunderland Aktiv 121 / 142 40% 1 02.08.2026 -